RYR81W LCPH-LMML

Flight info

Callsign RYR81W
Flight time N/A
Altitude 32000
Route GENOS M42 ALKIS DCT ROTAS DCT NIMAN DCT AGARI M978 GZO
Aircraft B738/M-SDE2E3FGHIRWXY/LB1

Departure

Time N/A
Airport Paphos International Airport (LCPH)

Arrival

Time 2026-05-05 18:23
Airport Malta International Airport (LMML)
Time Latitude Longitude Altitude Speed Heading
2026-05-05 17:53 35.96917 17.62433 38108 ft 392 kts 272°
2026-05-05 17:53 35.96938 17.59064 38106 ft 392 kts 272°
2026-05-05 17:54 35.96976 17.52322 38105 ft 393 kts 272°
2026-05-05 17:54 35.97011 17.45570 38105 ft 392 kts 272°
2026-05-05 17:55 35.97042 17.38770 38104 ft 392 kts 272°
2026-05-05 17:55 35.97069 17.32027 38104 ft 393 kts 272°
2026-05-05 17:56 35.97092 17.25278 38103 ft 394 kts 272°
2026-05-05 17:56 35.97111 17.18523 38103 ft 393 kts 272°
2026-05-05 17:57 35.97127 17.11822 38099 ft 394 kts 272°
2026-05-05 17:57 35.97139 17.04953 38091 ft 394 kts 271°
2026-05-05 17:58 35.97147 16.98188 38083 ft 394 kts 271°
2026-05-05 17:58 35.97151 16.91422 38082 ft 395 kts 271°
2026-05-05 17:59 35.97151 16.84682 38083 ft 395 kts 271°
2026-05-05 17:59 35.97148 16.77854 38082 ft 395 kts 271°
2026-05-05 17:59 35.97145 16.74463 37934 ft 398 kts 271°
2026-05-05 18:00 35.97141 16.71049 37573 ft 396 kts 271°
2026-05-05 18:00 35.97136 16.67658 37016 ft 395 kts 271°
2026-05-05 18:00 35.97130 16.64278 36558 ft 391 kts 271°
2026-05-05 18:00 35.97123 16.60938 36113 ft 388 kts 271°
2026-05-05 18:01 35.97115 16.57614 35664 ft 385 kts 271°
2026-05-05 18:01 35.97107 16.54276 35216 ft 382 kts 271°
2026-05-05 18:01 35.97097 16.51055 34786 ft 380 kts 271°
2026-05-05 18:01 35.97087 16.47804 34353 ft 377 kts 271°
2026-05-05 18:02 35.97076 16.44585 33927 ft 375 kts 271°
2026-05-05 18:02 35.97064 16.41371 33502 ft 372 kts 271°
2026-05-05 18:02 35.97052 16.38185 33084 ft 370 kts 271°
2026-05-05 18:02 35.97039 16.34981 32664 ft 368 kts 271°
2026-05-05 18:03 35.97025 16.31843 32255 ft 366 kts 271°
2026-05-05 18:03 35.97010 16.28753 31854 ft 364 kts 271°
2026-05-05 18:03 35.96995 16.25635 31451 ft 362 kts 271°
2026-05-05 18:03 35.96978 16.22541 31053 ft 360 kts 271°
2026-05-05 18:04 35.96961 16.19457 30659 ft 358 kts 271°
2026-05-05 18:04 35.96944 16.16389 30268 ft 357 kts 271°
2026-05-05 18:04 35.96925 16.13337 29885 ft 355 kts 271°
2026-05-05 18:04 35.96907 16.10300 29500 ft 354 kts 271°
2026-05-05 18:05 35.96887 16.07270 29107 ft 352 kts 270°
2026-05-05 18:05 35.96867 16.04255 28715 ft 350 kts 270°
2026-05-05 18:05 35.96850 16.01264 28325 ft 348 kts 271°
2026-05-05 18:05 35.96848 15.98281 27934 ft 347 kts 271°
2026-05-05 18:06 35.96834 15.95309 27544 ft 345 kts 270°
2026-05-05 18:06 35.96828 15.94306 27413 ft 345 kts 270°
2026-05-05 18:06 35.96797 15.90361 26894 ft 342 kts 270°
2026-05-05 18:06 35.96770 15.87433 26508 ft 341 kts 270°
2026-05-05 18:07 35.96742 15.84518 26121 ft 339 kts 270°
2026-05-05 18:07 35.96713 15.81604 25736 ft 338 kts 270°
2026-05-05 18:07 35.96682 15.78694 25348 ft 336 kts 270°
2026-05-05 18:07 35.96652 15.75807 24964 ft 335 kts 270°
2026-05-05 18:08 35.96621 15.72940 24582 ft 333 kts 270°
2026-05-05 18:08 35.96590 15.70095 24201 ft 332 kts 270°
2026-05-05 18:08 35.96560 15.67257 23820 ft 330 kts 270°
2026-05-05 18:08 35.96530 15.64422 23440 ft 329 kts 270°
2026-05-05 18:09 35.96502 15.61605 23062 ft 327 kts 271°
2026-05-05 18:09 35.96573 15.58824 22689 ft 326 kts 274°
2026-05-05 18:09 35.96730 15.56006 22308 ft 324 kts 275°
2026-05-05 18:09 35.96908 15.53231 21934 ft 323 kts 275°
2026-05-05 18:10 35.97075 15.50513 21567 ft 322 kts 275°
2026-05-05 18:10 35.97240 15.47718 21190 ft 320 kts 275°
2026-05-05 18:10 35.97399 15.44995 20779 ft 321 kts 275°
2026-05-05 18:10 35.97561 15.42237 20378 ft 320 kts 275°
2026-05-05 18:11 35.97720 15.39538 20035 ft 318 kts 275°
2026-05-05 18:11 35.97883 15.36783 19653 ft 317 kts 275°
2026-05-05 18:11 35.98043 15.34073 19311 ft 315 kts 275°
2026-05-05 18:11 35.98205 15.31377 18948 ft 314 kts 275°
2026-05-05 18:12 35.98362 15.28692 18592 ft 313 kts 275°
2026-05-05 18:12 35.98522 15.26014 18230 ft 312 kts 275°
2026-05-05 18:12 35.98680 15.23351 17882 ft 310 kts 275°
2026-05-05 18:12 35.98838 15.20701 17547 ft 308 kts 275°
2026-05-05 18:13 35.98998 15.18031 17172 ft 308 kts 275°
2026-05-05 18:13 35.99155 15.15410 16836 ft 306 kts 275°
2026-05-05 18:13 35.99312 15.12788 16469 ft 305 kts 275°
2026-05-05 18:13 35.99468 15.10187 16139 ft 304 kts 275°
2026-05-05 18:14 35.99625 15.07585 15782 ft 303 kts 275°
2026-05-05 18:14 35.99783 15.04994 15448 ft 301 kts 275°
2026-05-05 18:14 35.99941 15.02422 15095 ft 301 kts 275°
2026-05-05 18:14 36.00099 14.99848 14774 ft 299 kts 275°
2026-05-05 18:15 36.00256 14.97305 14469 ft 296 kts 275°
2026-05-05 18:15 36.00414 14.94771 14135 ft 295 kts 275°
2026-05-05 18:15 36.00575 14.92242 13781 ft 295 kts 275°
2026-05-05 18:15 36.00752 14.89729 13460 ft 293 kts 275°
2026-05-05 18:16 36.00899 14.87228 13126 ft 292 kts 271°
2026-05-05 18:16 36.00791 14.84726 12783 ft 291 kts 265°
2026-05-05 18:16 36.00568 14.82249 12468 ft 290 kts 264°
2026-05-05 18:16 36.00338 14.79746 12125 ft 289 kts 264°
2026-05-05 18:17 36.00113 14.77286 11795 ft 288 kts 264°
2026-05-05 18:17 35.99894 14.74870 11428 ft 289 kts 264°
2026-05-05 18:17 35.99674 14.72347 10994 ft 291 kts 264°
2026-05-05 18:17 35.99460 14.69856 10643 ft 291 kts 264°
2026-05-05 18:18 35.99250 14.67377 10303 ft 291 kts 264°
2026-05-05 18:18 35.98811 14.64969 9814 ft 285 kts 248°
2026-05-05 18:18 35.97882 14.62800 9009 ft 288 kts 240°
2026-05-05 18:18 35.96900 14.60688 8324 ft 286 kts 240°
2026-05-05 18:19 35.95906 14.58529 7450 ft 289 kts 240°
2026-05-05 18:19 35.94912 14.56347 6460 ft 296 kts 240°
2026-05-05 18:19 35.93918 14.54136 5863 ft 287 kts 240°
2026-05-05 18:19 35.92981 14.52032 5361 ft 273 kts 240°
2026-05-05 18:20 35.92106 14.50044 4854 ft 254 kts 240°
2026-05-05 18:20 35.91299 14.48184 4379 ft 237 kts 240°
2026-05-05 18:20 35.90551 14.46437 3813 ft 227 kts 240°
2026-05-05 18:20 35.89839 14.44744 3215 ft 215 kts 240°
2026-05-05 18:21 35.88980 14.43349 2575 ft 202 kts 214°
2026-05-05 18:21 35.87703 14.42849 2007 ft 186 kts 176°
2026-05-05 18:21 35.86614 14.43441 1695 ft 164 kts 135°
2026-05-05 18:21 35.86318 14.44697 930 ft 172 kts 79°
2026-05-05 18:22 35.86558 14.46074 314 ft 162 kts 112°
2026-05-05 18:22 35.86160 14.47166 408 ft 129 kts 117°
2026-05-05 18:22 35.85586 14.47943 324 ft 117 kts 133°
2026-05-05 18:22 35.85081 14.48576 308 ft 82 kts 131°
2026-05-05 18:23 35.84841 14.48876 308 ft 23 kts 134°
2026-05-05 18:23 35.84729 14.49017 308 ft 22 kts 134°
2026-05-05 18:23 35.84623 14.49151 308 ft 22 kts 134°
2026-05-05 18:23 35.84523 14.49280 308 ft 21 kts 124°
2026-05-05 18:24 35.84465 14.49439 308 ft 20 kts 116°
2026-05-05 18:24 35.84498 14.49570 308 ft 20 kts 343°
2026-05-05 18:24 35.84622 14.49544 308 ft 19 kts 35°
2026-05-05 18:24 35.84747 14.49521 308 ft 19 kts 345°
2026-05-05 18:25 35.84809 14.49514 308 ft 0 kts 360°